Theta_e
296 295 295 295 296 296 295 295 294 295 298 298 297 297 297 299 300 301 302 304 310 315 320 320 321 322 331 333 334 334 332 332 331 330 329 328 326 327 327 326 324 324 322 322
293 295 295 297 296 296 296 296 294 296 297 298 296 296 297 298 299 300 301 301 306 311 316 317 319 318 322 328 332 333 332 332 332 331 330 329 328 328 328 327 326 326 326 326
294 296 296 296 296 297 297 296 297 297 297 297 295 295 295 296 297 300 301 303 304 307 313 319 316 311 314 315 326 333 332 332 332 331 330 330 330 329 328 328 326 326 326 327
294 295 295 296 297 297 298 296 297 298 296 296 296 298 294 294 296 299 300 303 302 304 307 308 316 318 312 310 315 325 332 333 331 331 331 330 330 329 328 328 327 326 326 328
293 294 294 297 297 297 298 297 297 296 295 297 296 294 293 295 297 298 300 303 302 303 303 306 310 314 315 314 313 318 323 329 332 331 330 330 330 329 329 328 327 326 325 327
294 295 296 296 297 297 296 296 295 294 296 290 295 295 296 296 297 297 298 303 299 299 301 302 303 306 311 314 315 320 329 331 331 331 331 330 330 329 329 329 328 327 326 326
292 294 293 297 295 294 294 292 290 289 287 292 294 296 295 296 297 296 297 301 298 297 298 300 301 301 301 306 313 316 317 322 328 329 330 331 330 329 329 329 329 328 326 325
288 291 294 294 294 293 294 294 292 292 296 295 296 297 295 295 296 298 299 298 296 296 297 296 296 297 300 300 300 305 315 318 323 329 329 329 330 329 329 329 329 329 328 325
286 290 292 293 293 294 295 289 294 294 296 296 296 295 295 296 295 297 297 295 295 295 295 294 295 295 296 296 298 299 302 312 319 327 328 327 329 329 330 330 329 329 329 328
289 288 292 293 294 293 294 295 291 289 287 290 294 294 293 294 294 295 295 294 294 294 294 294 295 296 296 296 296 297 300 302 312 320 322 327 320 321 323 329 329 329 330 329
284 290 291 290 289 293 293 291 290 288 292 293 295 294 293 293 293 293 292 293 293 293 293 294 294 295 296 296 296 297 300 302 303 312 323 325 322 325 318 320 327 328 329 330
290 288 293 291 291 292 292 293 292 288 290 294 294 292 294 293 293 292 292 293 293 293 293 293 294 294 295 295 297 299 300 302 302 306 315 323 326 327 320 324 324 324 326 329
290 285 286 291 289 289 287 293 294 293 292 292 293 292 293 292 293 293 293 293 293 293 293 294 294 295 296 298 298 299 301 302 303 304 308 316 322 326 328 325 324 321 323 325
294 287 288 290 291 283 289 289 292 292 293 292 292 293 293 293 293 293 293 293 293 293 293 294 294 297 298 299 299 299 302 302 303 303 307 311 318 321 321 324 325 324 325 323
292 288 288 292 293 293 293 292 292 293 293 293 293 292 293 293 293 293 293 293 293 293 294 294 295 297 296 297 301 302 302 301 302 303 307 310 312 318 319 320 320 321 322 321
290 287 285 291 292 291 291 291 291 292 292 293 293 293 293 293 293 292 293 293 292 293 294 295 296 295 295 296 300 301 300 300 301 304 307 309 312 313 316 317 317 316 318 320
289 285 284 287 289 289 286 287 288 290 291 292 292 293 293 293 293 293 294 293 294 294 294 294 294 295 296 296 296 300 300 300 301 304 305 308 310 311 312 315 314 315 309 313
290 286 288 287 284 291 294 289 288 290 292 291 292 292 292 292 293 294 294 294 294 294 293 294 295 296 296 296 296 300 300 300 303 304 305 305 307 307 308 309 310 310 308 305
291 290 284 282 277 289 291 293 289 289 292 291 291 291 292 293 292 293 294 293 293 293 294 295 295 296 297 297 298 299 299 301 302 303 301 301 303 304 304 303 303 303 302 300
290 292 288 276 283 287 292 293 292 290 290 291 292 292 292 292 293 293 292 291 291 294 295 295 296 298 299 299 298 299 298 298 299 301 298 298 298 299 299 300 300 300 300 300
291 291 291 285 286 287 290 291 291 290 295 295 294 293 292 290 292 292 292 293 295 294 295 296 296 296 296 297 298 297 297 295 296 296 295 295 297 297 298 298 299 299 299 299
286 286 285 284 285 288 290 290 292 295 294 294 293 292 292 292 292 293 292 296 295 294 295 295 294 295 296 295 295 296 294 294 296 294 295 296 297 297 298 299 298 297 296 294
288 290 287 288 290 292 291 293 294 294 293 294 293 294 293 292 293 293 293 297 295 293 293 293 293 294 292 293 293 293 292 293 294 295 295 295 296 297 295 293 291 291 290 290
288 290 288 288 292 292 293 294 293 294 294 295 295 294 294 293 293 293 295 297 295 293 293 294 293 292 293 293 293 294 293 293 294 296 294 293 293 296 297 297 297 295 294 295
292 288 287 288 292 292 293 294 294 296 296 295 295 294 294 293 293 293 297 298 295 294 294 293 293 294 294 294 294 295 295 295 296 295 296 297 298 299 297 294 294 295 293 293
292 291 292 294 296 294 295 296 296 295 295 295 295 295 295 294 293 293 298 299 297 294 294 296 296 297 298 298 297 296 294 294 296 296 296 295 292 291 290 289 290 289 289 288
Wind_Speed
8 8 7 5 3 3 4 4 8 7 8 14 18 22 21 27 30 28 30 26 20 23 16 14 21 26 33 38 43 44 42 42 40 40 40 39 40 37 35 31 30 29 28 28
6 4 4 4 3 3 3 5 7 8 13 14 17 23 17 13 14 27 33 31 25 25 23 25 22 19 18 32 37 44 44 46 45 45 43 42 40 39 38 37 35 35 33 29
3 2 5 3 4 9 5 3 5 10 11 11 8 10 7 18 21 21 25 19 21 20 29 37 29 22 21 21 29 41 45 47 49 49 48 46 42 40 42 46 39 37 35 34
3 4 5 5 4 3 6 3 7 12 14 6 5 9 9 12 10 5 22 24 18 25 18 16 44 38 23 20 25 29 43 48 51 52 53 50 49 48 50 48 45 40 38 38
3 6 7 2 2 1 7 7 9 14 12 4 4 1 6 11 15 5 13 19 24 25 24 15 15 35 35 27 20 24 34 43 49 54 52 52 51 49 44 44 44 43 40 40
4 6 2 3 4 3 7 8 14 2 1 3 5 2 7 5 6 12 13 15 23 30 28 27 25 20 16 27 24 17 19 32 44 48 51 53 52 50 46 46 44 44 42 43
7 2 4 2 5 4 8 5 5 7 5 5 4 10 9 14 18 6 13 10 18 25 31 31 32 31 30 15 22 33 33 22 35 42 43 45 48 48 49 45 44 43 39 39
4 8 1 2 2 3 4 3 3 5 4 14 19 6 5 7 12 12 8 9 14 21 27 30 35 28 27 28 26 17 29 43 26 34 33 37 42 46 48 47 44 41 38 34
4 6 5 2 2 2 3 2 3 4 11 5 4 6 12 10 10 6 6 15 23 27 31 29 36 36 32 29 25 23 18 25 33 22 28 26 28 36 45 45 45 41 33 29
2 6 2 5 5 4 4 1 2 2 4 6 9 12 11 13 13 12 12 19 23 27 29 40 45 38 34 28 25 23 21 18 18 32 37 39 39 40 35 41 43 40 33 27
5 4 6 4 3 5 2 3 2 2 2 3 6 11 5 8 6 10 11 24 31 36 37 38 37 33 33 29 27 25 22 20 14 19 23 38 43 44 36 35 37 33 34 32
7 4 5 10 4 3 5 4 3 4 5 3 6 14 5 13 9 9 24 35 36 38 39 41 39 37 31 28 25 24 22 23 18 14 17 23 36 38 41 41 35 29 31 39
6 1 5 8 5 4 3 3 5 1 2 9 5 9 4 2 18 30 30 36 33 35 42 40 35 33 28 24 22 21 20 23 21 17 13 16 24 34 39 37 36 36 35 23
9 4 8 8 10 2 13 11 11 6 6 7 17 30 34 27 21 28 31 34 36 36 38 36 32 26 25 23 21 17 17 21 22 19 15 12 16 22 28 33 34 36 36 23
7 5 6 15 20 19 25 25 19 18 22 12 28 17 29 25 23 31 36 36 35 36 34 34 32 25 30 28 16 14 18 21 21 18 14 12 12 17 21 26 29 33 27 26
2 4 1 15 11 6 18 20 20 20 20 25 30 33 31 40 34 25 28 28 28 33 34 36 28 32 32 29 21 17 19 21 22 19 13 10 11 12 18 19 26 30 34 40
4 2 4 7 7 12 7 7 6 4 8 7 9 18 17 19 22 28 28 28 29 32 34 34 34 36 38 32 23 21 19 20 20 18 12 10 11 13 15 17 20 26 33 37
4 4 2 5 7 3 4 5 8 10 12 13 16 20 23 27 33 36 36 33 23 31 36 43 34 26 23 20 21 21 19 17 14 13 10 8 10 11 14 17 20 25 30 24
10 4 2 2 2 10 8 2 3 3 10 9 12 13 20 26 27 27 21 17 30 35 38 30 25 22 21 17 17 19 17 12 8 9 7 6 7 9 12 14 18 20 23 25
5 7 5 2 2 6 6 4 7 4 5 6 12 9 13 22 12 15 34 39 33 31 22 18 17 17 12 12 12 16 13 8 5 5 6 7 10 12 15 19 26 28 28 29
5 4 13 6 5 11 13 14 1 4 5 4 14 22 19 5 15 40 37 33 26 20 18 15 12 9 5 4 9 10 8 7 7 9 13 18 19 24 29 31 31 32 30 27
8 8 5 3 3 11 17 9 7 5 7 23 32 33 27 31 34 40 31 27 23 16 12 10 9 7 7 7 5 6 8 11 14 18 23 26 30 30 30 31 33 31 28 24
3 7 5 11 9 7 21 13 13 15 32 40 34 33 30 29 33 36 30 22 22 12 8 8 7 8 3 2 3 11 17 20 24 26 27 28 30 29 24 23 23 22 19 18
5 14 4 2 17 25 35 40 44 34 37 30 24 24 25 29 31 28 25 19 18 10 5 5 6 5 7 6 9 13 17 19 27 31 27 25 26 26 25 24 22 20 16 16
7 11 6 8 27 30 44 39 32 21 15 20 24 27 30 27 19 22 21 17 13 8 4 5 8 13 15 15 20 20 18 19 21 23 23 22 22 21 21 20 16 14 11 10
18 9 8 10 23 17 31 26 25 22 25 33 36 36 23 19 20 19 14 11 11 5 7 13 16 17 17 15 15 17 15 12 12 13 13 13 12 13 12 11 12 13 14 12
Wind_Direction
23 53 34 356 64 220 236 276 287 283 294 330 308 295 304 301 295 292 290 278 267 274 272 268 266 260 250 239 238 240 235 229 228 226 225 225 227 224 225 234 235 232 230 228
28 50 333 307 4 52 41 294 298 289 315 321 298 295 293 291 304 307 296 283 275 273 269 265 260 281 271 255 243 239 240 233 233 232 231 231 230 228 225 230 231 232 232 235
64 293 326 32 355 6 347 276 296 294 308 286 306 296 302 298 304 316 316 324 328 312 268 262 282 296 288 282 256 245 241 239 235 232 230 229 232 233 231 233 233 230 232 234
271 317 348 347 26 38 321 244 295 300 323 301 59 299 299 292 296 350 346 353 342 345 329 277 260 267 285 291 286 267 247 240 238 232 230 231 230 229 233 233 235 231 230 235
278 334 346 331 287 293 259 307 279 296 291 321 297 301 266 298 291 350 5 10 8 7 16 1 309 259 267 275 282 270 272 260 240 237 233 235 234 237 235 233 234 238 233 233
250 299 248 265 296 266 296 318 304 328 348 353 272 55 272 283 264 331 335 346 6 14 15 24 26 17 285 256 259 281 269 265 252 240 235 233 235 236 233 235 238 242 242 236
328 275 290 327 327 321 15 24 347 354 3 244 343 322 265 278 278 271 284 327 6 14 20 15 13 13 18 358 274 272 270 286 251 243 239 239 238 237 241 243 245 245 246 241
35 334 220 41 144 276 320 99 135 302 309 299 297 242 259 281 283 278 335 332 354 357 350 349 358 351 353 357 3 329 272 263 274 243 250 244 242 241 242 245 248 249 248 252
8 279 316 291 297 101 335 27 203 249 265 275 260 300 298 293 327 306 339 341 348 345 342 339 337 337 335 337 339 343 337 261 255 258 244 252 254 250 249 250 250 251 249 256
227 305 294 309 350 262 199 226 7 9 334 308 285 296 259 304 303 295 329 331 329 330 329 325 322 324 323 321 326 326 329 331 276 252 246 245 260 261 268 257 253 249 247 250
132 139 285 13 192 171 13 327 39 124 162 258 307 290 226 272 280 296 311 320 319 316 312 312 309 308 305 308 314 320 321 320 319 268 243 234 243 244 255 261 261 248 248 247
192 163 281 252 222 216 180 223 167 126 284 241 281 270 262 263 281 296 310 305 304 306 306 307 305 305 304 306 311 314 312 319 317 300 268 239 230 240 239 246 243 250 251 247
173 272 323 337 6 356 137 190 217 116 235 243 243 262 221 232 306 302 298 299 300 300 304 309 310 310 313 312 309 308 307 315 314 311 290 264 236 225 232 238 236 243 251 237
160 183 183 221 248 170 283 252 252 251 254 272 239 273 290 296 298 303 301 298 297 301 306 309 311 317 327 321 312 302 305 316 314 308 299 262 255 241 232 229 239 240 231 230
167 222 230 248 264 270 267 272 264 240 240 249 269 271 278 286 291 294 295 293 291 296 309 310 306 309 319 327 317 308 311 317 315 307 296 284 248 243 247 235 224 209 219 215
191 266 67 295 265 288 286 264 257 246 247 246 258 272 272 281 284 287 292 288 284 297 307 307 295 301 303 312 312 307 311 321 316 308 297 280 267 249 233 232 227 215 200 196
173 157 48 262 334 318 287 241 199 210 200 197 226 259 291 297 295 298 300 296 293 298 310 303 299 297 299 299 294 290 301 312 311 306 295 277 261 251 243 233 221 213 199 192
154 119 137 282 343 343 251 255 210 228 250 236 261 270 274 282 295 303 298 295 310 304 299 301 300 292 297 283 286 281 291 303 306 303 282 264 253 247 237 227 214 200 199 190
202 151 304 268 221 297 297 219 150 146 291 220 233 259 269 298 308 305 320 301 308 303 313 304 300 292 297 274 273 273 283 288 291 286 264 240 228 226 217 209 200 188 174 153
177 205 168 64 211 259 239 157 133 130 288 231 219 257 311 330 325 316 324 315 312 316 323 318 310 305 290 274 266 274 282 275 255 247 205 181 182 186 175 169 155 147 146 141
156 194 212 209 255 276 256 235 311 77 256 238 280 298 310 292 292 309 329 329 331 331 336 344 342 357 353 300 268 265 247 206 171 165 160 154 146 149 145 141 137 132 127 123
166 168 192 158 191 269 181 109 179 224 293 310 304 305 305 309 318 330 333 336 338 335 348 359 356 337 301 281 256 229 190 151 140 142 138 135 136 134 132 129 122 118 120 132
251 196 186 193 214 238 196 230 237 277 297 301 301 311 311 311 323 329 333 339 342 346 9 8 356 336 12 69 158 154 145 138 139 135 131 130 127 122 122 124 122 123 126 137
244 193 221 97 248 252 265 267 270 279 287 293 302 311 314 313 321 328 332 343 343 356 25 8 37 57 74 97 134 132 133 138 136 126 122 127 127 126 128 131 128 129 138 148
194 154 190 261 271 277 270 267 272 271 278 293 309 312 317 317 326 332 333 343 355 17 57 81 90 92 91 106 111 108 112 122 124 128 128 128 124 126 135 139 142 144 170 186
202 208 206 231 239 235 268 279 290 279 292 298 306 307 306 320 323 327 331 339 355 34 93 113 118 110 105 111 101 110 116 131 137 142 148 151 142 142 152 154 160 167 171 179